This is the latest recevied weather packets stored in our database for station/object AI5ON. If no packets are shown the sender has not sent any weather packets the latest 10 day(s).
| Time | Temp. | Humidity | Pressure | Rain* | Wind** | Luminosity | Snow |
|---|---|---|---|---|---|---|---|
| 1787955361 | 35.56° C | 45% | 1014.1 hPa | 0 mm | - | 414 W/m² | - |
| 1787955059 | 35° C | 51% | 1014.1 hPa | 0 mm | - | 451 W/m² | - |
| 1787954755 | 35° C | 46% | 1014.2 hPa | 0 mm | - | 470 W/m² | - |
| 1787954451 | 35° C | 50% | 1014.1 hPa | 0 mm | - | 476 W/m² | - |
| 1787954145 | 35° C | 48% | 1014.3 hPa | 0 mm | - | 392 W/m² | - |
| 1787953844 | 35° C | 48% | 1014.3 hPa | 0 mm | - | 526 W/m² | - |
| 1787953545 | 35° C | 48% | 1014.3 hPa | 0 mm | - | 544 W/m² | - |
| 1787953244 | 35.56° C | 47% | 1014.1 hPa | 0 mm | - | 560 W/m² | - |
| 1787952942 | 35° C | 47% | 1014.4 hPa | 0 mm | - | 525 W/m² | - |
| 1787952637 | 35° C | 48% | 1014.5 hPa | 0 mm | - | 598 W/m² | - |
| 1787952336 | 34.44° C | 47% | 1014.3 hPa | 0 mm | - | 566 W/m² | - |
| 1787952033 | 35° C | 49% | 1014.4 hPa | 0 mm | - | 643 W/m² | - |
| 1787951732 | 35.56° C | 50% | 1014.2 hPa | 0 mm | - | 591 W/m² | - |
| 1787951428 | 35° C | 50% | 1014.4 hPa | 0 mm | - | 681 W/m² | - |
| 1787951124 | 35° C | 48% | 1014.5 hPa | 0 mm | - | 683 W/m² | - |
| 1787950820 | 35° C | 48% | 1014.7 hPa | 0 mm | - | 621 W/m² | - |
| 1787950514 | 35° C | 49% | 1014.8 hPa | 0 mm | - | 710 W/m² | - |
| 1787950211 | 34.44° C | 50% | 1014.9 hPa | 0 mm | - | 716 W/m² | - |
| 1787949907 | 35° C | 51% | 1015 hPa | 0 mm | - | 739 W/m² | - |
| 1787949601 | 34.44° C | 50% | 1015 hPa | 0 mm | - | 760 W/m² | - |
| 1787949296 | 34.44° C | 49% | 1015 hPa | 0 mm | - | 371 W/m² | - |
| 1787948991 | 33.89° C | 52% | 1015.1 hPa | 0 mm | - | 253 W/m² | - |
| 1787948687 | 35° C | 51% | 1015.3 hPa | 0 mm | - | 183 W/m² | - |
| 1787948383 | 35.56° C | 46% | 1015.4 hPa | 0 mm | - | 875 W/m² | - |
| 1787948082 | 35.56° C | 47% | 1015.5 hPa | 0 mm | - | 828 W/m² | - |
* Rain latest hour (hover to see other rain measurements)
** Current wind speed in m/s (hover to see current wind gust speed)